Location: Olomouc
(49.5830°N, 17.2500°E)
Time: 15:00:00
(UTC+02:00)

ISS - Visible Passes

Search period start: 29 September 2023 00:00
Search period end: 09 October 2023 00:00
Orbit: 413 x 421 km, 51.6° (Epoch: 29 September)

Date Brightness Start Highest point End Pass type
(mag) Time Alt. Az. Time Alt. Az. Time Alt. Az.
29 Sep -3.7 19:17:13 10° WNW 19:20:34 82° SSW 19:23:42 11° ESE visible
29 Sep -1.6 20:54:25 10° W 20:56:37 20° SW 20:56:37 20° SW visible
30 Sep -2.3 20:05:49 10° W 20:08:48 30° SSW 20:10:19 20° S visible
01 Oct -2.8 19:17:20 10° WNW 19:20:31 44° SSW 19:23:43 10° SE visible
02 Oct -1.1 20:06:30 10° WSW 20:08:23 14° SW 20:10:17 10° S visible
03 Oct -1.5 19:17:28 10° W 19:20:05 21° SW 19:22:43 10° SSE visible
